Location: Coopersdale
(40.3556°N, 78.9372°W)
Time: 00:49:03
(UTC+00:00)

Transit 4A - Pass Details

Date: 24 January 2021
Orbit: 867 x 978 km, 66.8° (Epoch: 07 March)

Event Time Altitude Azimuth Distance (km) Brightness Sun altitude
Rises 07:41:11 0° 339° (NNW) 3,634 - -54.5°
Reaches altitude 10° 07:44:28 10° 355° (N) 2,666 - -53.9°
Maximum altitude 07:49:02 21° 43° (NE) 1,964 - -53.1°
Drops below altitude 10° 07:53:29 10° 91° (E) 2,599 - -52.3°
Exits shadow 07:55:48 - 103° (ESE) 3,258 11.2 -51.9°
Sets 07:56:37 0° 107° (ESE) 3,516 11.3 -51.8°
